Stations météo

Publicité
Trappes, France (7145): Température de l'air & dewpoint: 14.07.2018 12:00:00 - 20.07.2018 12:00:00 (CEST)Trappes, France (7145): Température de l'air 5cm: 14.07.2018 12:00:00 - 20.07.2018 12:00:00 (CEST)Trappes, France (7145): Température de l'air -20cm & Température de l'air -100cm: 14.07.2018 12:00:00 - 20.07.2018 12:00:00 (CEST)Trappes, France (7145): Vitesse du vent & gusts: 14.07.2018 12:00:00 - 20.07.2018 12:00:00 (CEST)Trappes, France (7145): Direction du vent: 14.07.2018 12:00:00 - 20.07.2018 12:00:00 (CEST)Trappes, France (7145): reduced air pressure: 14.07.2018 12:00:00 - 20.07.2018 12:00:00 (CEST)Trappes, France (7145): visibility: 14.07.2018 12:00:00 - 20.07.2018 12:00:00 (CEST)Trappes, France (7145): Ensoleillement: 14.07.2018 12:00:00 - 20.07.2018 12:00:00 (CEST)Trappes, France (7145): Quantités de précipitations: 14.07.2018 12:00:00 - 20.07.2018 12:00:00 (CEST)
Date & Time tt [°C] td [°C] tt 5cm [°C] tt -20cm [°C] tt -100cm [°C] ff [km/h] ff [knt] fx [km/h] fx [knt] dd ppp [hPa] vv [km] sd [min] rr [mm]
20.07.2018 12:00:00 20,4 16,6 22,5 21,3 18,6 9 5 15 8 SSW 1014,4 20 0 0,0
20.07.2018 11:00:00 20,2 16,2 20,6 21,3 18,6 7 4 14 8 SSE 1014,5 20 4 0,0
20.07.2018 10:00:00 19,3 16,3 20,6 21,3 18,6 9 5 16 9 S 1014,7 20 0 0,0
20.07.2018 09:00:00 19,0 16,2 19,2 21,3 18,6 6 4 14 8 S 1014,5 20 0 0,0
20.07.2018 08:00:00 18,5 16,5 18,1 21,5 18,6 8 4 12 6 S 1014,5 20 0 0,0
20.07.2018 07:00:00 18,3 16,5 17,8 21,6 18,6 5 3 12 6 S 1014,5 20 0 0,0
20.07.2018 06:00:00 18,3 16,1 17,9 21,7 18,6 6 4 14 7 S 1014,5 20 0 0,0
20.07.2018 05:00:00 18,5 15,9 17,5 21,8 18,6 6 3 12 6 S 1014,7 20 0 0,0
20.07.2018 04:00:00 19,0 15,9 17,6 22,0 18,6 0 0 9 5 N 1015,0 20 0 0,0
20.07.2018 03:00:00 19,7 16,0 18,0 22,2 18,6 6 4 16 8 W 1015,2 20 0 0,0
20.07.2018 02:00:00 19,6 15,9 18,3 22,3 18,6 6 3 25 13 WNW 1015,8 20 0 0,0
20.07.2018 01:00:00 21,2 15,9 20,5 22,5 18,6 13 7 24 13 W 1016,1 20 0 0,0
20.07.2018 00:00:00 23,6 12,6 21,3 22,7 18,6 8 5 16 9 W 1015,4 20 0 0,0
19.07.2018 23:00:00 24,6 11,2 22,8 22,9 18,6 7 4 19 10 E 1015,2 20 0 0,0
19.07.2018 22:00:00 25,5 10,9 23,7 23,0 18,6 10 6 17 9 E 1014,6 20 0 0,0
19.07.2018 21:00:00 26,5 11,0 24,9 23,0 18,6 7 4 14 7 E 1014,5 20 0 0,0
19.07.2018 20:00:00 27,2 11,6 26,4 23,0 18,6 10 5 18 10 E 1014,5 20 0 0,0
19.07.2018 19:00:00 28,0 11,9 28,7 22,9 18,6 9 5 19 10 E 1014,5 20 39 0,0
19.07.2018 18:00:00 28,2 11,3 29,9 22,6 18,6 5 3 25 13 ENE 1014,9 20 21 0,0
19.07.2018 17:00:00 28,5 11,1 31,9 22,3 18,6 4 2 15 8 ENE 1015,3 20 33 0,0
19.07.2018 16:00:00 28,7 12,6 32,1 21,9 18,6 4 2 23 12 WSW 1016,0 20 41 0,0
19.07.2018 15:00:00 28,1 11,2 30,1 21,6 18,6 9 5 22 12 SE 1016,0 19 23 0,0
19.07.2018 14:00:00 27,7 11,7 31,3 21,3 18,6 8 5 24 13 E 1016,7 20 27 0,0
19.07.2018 13:00:00 27,0 11,5 30,4 20,9 18,6 12 6 24 13 E 1016,9 20 48 0,0
19.07.2018 12:00:00 26,5 12,5 27,3 20,7 18,6 15 8 26 14 E 1017,0 20 44 0,0
19.07.2018 11:00:00 24,4 12,0 23,1 20,5 18,6 12 6 21 11 E 1017,3 20 40 0,0
19.07.2018 10:00:00 22,3 12,5 21,7 20,5 18,6 9 5 19 10 E 1017,5 20 19 0,0
19.07.2018 09:00:00 20,6 11,8 20,1 20,6 18,6 9 5 19 10 E 1017,4 20 2 0,0
19.07.2018 08:00:00 20,0 11,7 16,6 20,8 18,6 8 5 18 10 E 1017,6 20 58 0,0
19.07.2018 07:00:00 17,6 11,4 10,4 21,0 18,6 7 4 9 5 ENE 1017,6 20 24 0,0
19.07.2018 06:00:00 15,9 10,6 10,0 21,2 18,6 3 1 5 3 E 1017,8 20 0 0,0
19.07.2018 05:00:00 16,9 10,5 12,8 21,4 18,6 4 2 11 6 E 1017,7 20 0 0,0
19.07.2018 04:00:00 18,3 10,6 14,7 21,7 18,6 6 3 14 8 E 1017,8 20 0 0,0
19.07.2018 03:00:00 18,6 10,7 15,8 21,9 18,6 9 5 14 8 NE 1017,9 20 0 0,0
19.07.2018 02:00:00 19,1 10,9 16,0 22,1 18,6 6 3 15 8 NE 1018,0 20 0 0,0
19.07.2018 01:00:00 20,0 11,2 17,0 22,4 18,6 7 4 17 9 NNE 1017,9 20 0 0,0
19.07.2018 00:00:00 21,4 11,4 17,6 22,6 18,6 8 4 13 7 ENE 1017,5 20 0 0,0
18.07.2018 23:00:00 22,3 11,7 19,4 22,8 18,6 9 5 16 8 ENE 1016,9 20 0 0,0
18.07.2018 22:00:00 23,4 11,8 20,5 23,0 18,6 7 4 15 8 NE 1016,3 20 20 0,0
18.07.2018 21:00:00 25,0 11,5 24,4 23,0 18,6 6 3 19 10 NNE 1016,2 20 60 0,0
18.07.2018 20:00:00 26,3 11,6 28,8 22,9 18,6 7 4 19 10 NE 1016,0 20 57 0,0
18.07.2018 19:00:00 27,0 11,5 32,0 22,8 18,6 4 2 18 10 NW 1016,0 20 60 0,0
18.07.2018 18:00:00 26,8 10,5 26,7 22,6 18,6 11 6 19 11 NE 1016,2 20 39 0,0
18.07.2018 17:00:00 25,9 10,9 26,4 22,3 18,6 4 2 16 8 NE 1016,5 20 38 0,0
18.07.2018 16:00:00 25,0 10,5 26,9 22,1 18,6 9 5 46 25 ENE 1016,8 20 32 0,0
18.07.2018 15:00:00 25,0 10,5 27,7 21,8 18,6 4 2 16 9 S 1017,1 20 7 0,0
18.07.2018 14:00:00 24,4 10,7 27,0 21,4 18,5 5 3 18 10 SSE 1017,5 20 29 0,0
18.07.2018 13:00:00 24,6 10,5 31,4 21,0 18,6 7 4 23 12 SE 1017,8 20 58 0,0
18.07.2018 12:00:00 23,4 11,1 29,6 20,7 18,6 8 4 22 12 NE 1018,1 20 60 0,0
18.07.2018 11:00:00 22,5 11,6 26,3 20,5 18,5 10 6 22 12 ENE 1018,4 20 60 0,0
18.07.2018 10:00:00 21,4 11,1 23,0 20,5 18,5 13 7 19 10 ENE 1018,6 20 60 0,0
18.07.2018 09:00:00 19,2 10,2 18,7 20,6 18,5 10 5 16 9 ENE 1018,9 20 50 0,0
18.07.2018 08:00:00 17,7 11,0 15,0 20,7 18,5 5 3 10 5 NE 1018,9 20 20 0,0
18.07.2018 07:00:00 16,2 10,5 10,8 20,9 18,5 4 2 8 4 NNE 1018,8 20 4 0,0
18.07.2018 06:00:00 16,0 9,9 12,7 21,2 18,6 5 3 10 5 NE 1018,9 20 0 0,0
18.07.2018 05:00:00 16,4 10,5 11,7 21,4 18,5 4 2 7 4 NE 1018,7 20 0 0,0
18.07.2018 04:00:00 16,4 10,3 11,6 21,6 18,5 4 2 10 5 NNE 1018,8 20 0 0,0
18.07.2018 03:00:00 17,3 10,4 14,5 21,8 18,5 5 3 9 5 NE 1019,0 20 0 0,0
18.07.2018 02:00:00 17,8 10,2 15,3 22,1 18,5 4 2 12 6 NNE 1019,1 20 0 0,0
18.07.2018 01:00:00 18,5 10,6 16,3 22,4 18,6 6 4 15 8 NNE 1019,0 20 0 0,0
18.07.2018 00:00:00 18,9 10,7 16,8 22,6 18,5 8 5 16 8 NNE 1018,9 20 0 0,0
17.07.2018 23:00:00 19,8 11,6 13,7 22,7 18,5 6 4 16 8 N 1018,5 20 0 0,0
17.07.2018 22:00:00 21,0 11,9 17,2 22,9 18,5 4 2 8 5 N 1017,8 20 20 0,0
17.07.2018 21:00:00 22,3 12,0 21,1 23,0 18,5 5 3 17 9 N 1017,5 20 13 0,0
17.07.2018 20:00:00 23,7 12,3 23,9 23,0 18,5 8 5 22 12 N 1017,1 20 46 0,0
17.07.2018 19:00:00 24,1 11,8 25,3 22,9 18,5 6 4 21 11 NW 1016,9 20 24 0,0
17.07.2018 18:00:00 24,4 11,7 28,8 22,8 18,5 8 5 19 11 WNW 1017,1 20 53 0,0
17.07.2018 17:00:00 24,0 12,0 25,6 22,6 18,5 9 5 20 11 NW 1017,3 20 16 0,0
17.07.2018 16:00:00 23,7 12,7 26,1 22,3 18,5 10 5 22 12 WNW 1017,5 20 9 0,0
17.07.2018 15:00:00 23,9 13,4 26,9 22,0 18,5 9 5 25 14 NW 1017,6 20 33 0,0
17.07.2018 14:00:00 23,1 13,8 26,6 21,7 18,5 9 5 21 11 NNW 1018,0 20 32 0,0
17.07.2018 13:00:00 22,1 13,7 26,7 21,4 18,5 9 5 21 11 WNW 1018,1 20 50 0,0
17.07.2018 12:00:00 22,1 14,2 25,3 21,3 18,5 9 5 17 9 W 1018,1 20 36 0,0
17.07.2018 11:00:00 20,4 13,6 22,5 21,2 18,4 6 4 14 8 NNW 1018,0 20 25 0,0
17.07.2018 10:00:00 19,0 14,7 20,9 21,2 18,4 8 4 16 9 W 1018,0 20 23 0,0
17.07.2018 09:00:00 18,4 14,3 18,1 21,3 18,4 8 4 16 9 W 1017,7 20 27 0,0
17.07.2018 08:00:00 17,6 14,5 16,2 21,4 18,4 8 5 16 9 NNW 1017,4 20 39 0,0
17.07.2018 07:00:00 17,2 12,9 16,2 21,6 18,5 7 4 16 9 NW 1017,0 20 6 0,0
17.07.2018 06:00:00 17,7 12,6 16,2 21,8 18,5 6 4 14 8 NNW 1016,5 20 0 0,0
17.07.2018 05:00:00 18,3 11,6 16,0 22,0 18,4 5 3 11 6 NNW 1016,2 20 0 0,0
17.07.2018 04:00:00 18,7 11,5 16,4 22,2 18,4 4 2 15 8 NNW 1016,0 20 0 0,0
17.07.2018 03:00:00 19,8 11,6 15,4 22,4 18,4 6 3 13 7 NW 1015,7 20 0 0,0
17.07.2018 02:00:00 19,8 10,8 13,6 22,7 18,4 3 2 7 4 NNW 1015,8 20 0 0,0
17.07.2018 01:00:00 19,6 10,8 13,8 22,9 18,4 2 1 5 3 N 1015,8 20 0 0,0
17.07.2018 00:00:00 21,0 11,3 16,9 23,2 18,4 3 2 11 6 N 1015,5 20 0 0,0
16.07.2018 23:00:00 21,8 10,9 15,4 23,4 18,4 3 2 11 6 N 1015,1 20 0 0,0
16.07.2018 22:00:00 24,0 11,0 20,8 23,6 18,4 7 4 16 9 NNW 1014,1 20 6 0,0
16.07.2018 21:00:00 26,1 11,4 25,4 23,7 18,4 9 5 26 14 N 1013,2 20 60 0,0
16.07.2018 20:00:00 27,2 12,4 26,6 23,8 18,4 9 5 18 10 NNW 1012,4 20 43 0,0
16.07.2018 19:00:00 27,3 13,6 26,8 23,6 18,4 8 4 17 9 N 1012,1 20 26 0,0
16.07.2018 18:00:00 27,8 12,6 29,6 23,5 18,4 9 5 24 13 NW 1012,0 20 48 0,0
16.07.2018 17:00:00 27,7 12,9 30,1 23,2 18,4 6 4 20 11 NNE 1012,0 20 48 0,0
16.07.2018 16:00:00 27,7 13,2 33,2 22,8 18,4 10 6 20 11 NNE 1012,2 20 60 0,0
16.07.2018 15:00:00 26,8 12,8 30,7 22,4 18,4 10 5 21 11 N 1012,6 20 45 0,0
16.07.2018 14:00:00 26,6 13,7 28,4 22,1 18,4 9 5 18 10 N 1013,0 20 49 0,0
16.07.2018 13:00:00 24,5 13,7 28,7 21,8 18,4 9 5 19 10 N 1013,4 20 44 0,0
16.07.2018 12:00:00 24,2 13,7 27,8 21,6 18,4 8 4 16 9 NNW 1013,5 20 32 0,8
16.07.2018 11:00:00 23,3 13,7 25,1 21,5 18,4 6 4 13 7 NW 1013,3 20 47 0,0
16.07.2018 10:00:00 21,3 13,5 21,3 21,5 18,4 6 3 14 8 NNE 1013,4 20 47 0,0
16.07.2018 09:00:00 19,1 13,3 19,2 21,6 18,3 7 4 15 8 NNW 1013,5 20 53 0,0
16.07.2018 08:00:00 17,5 12,2 16,2 21,7 18,3 7 4 13 7 NNW 1013,6 20 18 0,0
16.07.2018 07:00:00 16,9 11,8 15,7 22,0 18,4 7 4 13 7 NNW 1013,7 20 0 0,0
16.07.2018 06:00:00 17,3 12,2 16,3 22,2 18,3 8 4 14 8 NNW 1013,7 20 0 0,0
16.07.2018 05:00:00 18,2 12,9 17,3 22,4 18,3 8 4 16 8 NW 1013,7 20 0 0,0
16.07.2018 04:00:00 19,2 13,6 18,4 22,6 18,3 7 4 16 9 NW 1013,7 20 0 0,0
16.07.2018 03:00:00 19,8 13,7 18,5 22,9 18,3 8 4 16 8 NNW 1014,0 20 0 0,0
16.07.2018 02:00:00 20,2 13,4 18,1 23,1 18,3 8 5 16 8 NNW 1014,2 20 0 0,0
16.07.2018 01:00:00 21,8 12,9 15,6 23,4 18,3 6 4 16 9 WNW 1014,4 20 0 0,0
16.07.2018 00:00:00 22,3 13,6 16,1 23,6 18,3 2 1 7 4 NNW 1014,4 20 0 0,0
15.07.2018 23:00:00 22,6 12,2 17,7 23,9 18,3 3 2 11 6 W 1014,5 20 0 0,0
15.07.2018 22:00:00 24,6 12,2 21,5 24,1 18,3 4 2 16 9 N 1013,7 20 23 0,0
15.07.2018 21:00:00 25,0 12,6 24,4 24,2 18,3 8 4 27 15 NNE 1013,3 20 19 0,0
15.07.2018 20:00:00 28,3 11,8 28,8 24,2 18,3 5 3 11 6 NNE 1012,5 20 47 0,0
15.07.2018 19:00:00 28,5 12,8 28,3 24,1 18,3 5 3 16 9 N 1012,6 20 28 0,0
15.07.2018 18:00:00 29,7 13,0 30,0 23,9 18,3 7 4 16 9 N 1012,6 20 56 0,0
15.07.2018 17:00:00 28,5 12,4 28,6 23,6 18,3 7 4 18 10 N 1013,0 20 16 0,0
15.07.2018 16:00:00 29,1 12,1 34,8 23,1 18,3 5 3 20 11 SE 1013,5 20 56 0,0
15.07.2018 15:00:00 28,5 14,0 32,6 22,6 18,3 10 5 20 11 NNE 1014,0 20 56 0,0
15.07.2018 14:00:00 28,4 13,1 34,5 22,1 18,3 6 4 19 11 NE 1014,4 20 60 0,0
15.07.2018 13:00:00 27,0 13,7 32,2 21,7 18,3 10 5 23 13 ENE 1015,0 20 60 0,0
15.07.2018 12:00:00 26,0 16,3 31,5 21,4 18,3 8 4 16 9 NNE 1015,4 20 60 0,0
15.07.2018 11:00:00 23,8 15,6 24,1 21,2 18,3 9 5 16 8 NNW 1016,0 20 56 0,0
15.07.2018 10:00:00 21,2 16,2 22,7 21,2 18,3 7 4 11 6 NW 1016,3 20 15 0,0
15.07.2018 09:00:00 20,8 16,0 20,1 21,3 18,3 5 3 11 6 NNW 1015,8 20 50 0,0
15.07.2018 08:00:00 19,0 15,9 16,6 21,4 18,3 4 2 8 5 NNW 1016,0 20 19 0,0
15.07.2018 07:00:00 17,5 15,5 15,8 21,6 18,3 4 2 9 5 S 1015,9 20 0 0,0
15.07.2018 06:00:00 17,7 15,5 15,4 21,8 18,2 0 0 22 12 N 1016,0 20 0 0,0
15.07.2018 05:00:00 18,6 15,1 16,2 22,0 18,3 3 2 19 10 N 1016,3 2,8 0 0,0
15.07.2018 04:00:00 19,7 14,7 18,0 22,2 18,3 4 2 7 4 N 1016,3 20 0 0,0
15.07.2018 03:00:00 20,9 14,1 18,8 22,3 18,3 0 0 8 4 N 1016,6 20 0 0,0
15.07.2018 02:00:00 22,0 13,1 19,2 22,5 18,3 4 2 10 6 S 1017,2 20 0 0,0
15.07.2018 01:00:00 22,3 13,1 20,1 22,7 18,2 6 3 16 8 N 1016,9 20 0 0,0
15.07.2018 00:00:00 22,8 13,3 20,3 23,0 18,3 6 3 16 8 NNE 1016,9 20 0 0,0
14.07.2018 23:00:00 23,6 13,2 20,0 23,2 18,3 6 3 10 6 NNE 1016,7 20 0 0,0
14.07.2018 22:00:00 25,2 13,4 21,7 23,2 18,3 4 2 11 6 N 1016,0 13 23 0,0
14.07.2018 21:00:00 27,1 13,4 27,1 23,3 18,3 6 3 14 7 N 1015,8 20 60 0,0
14.07.2018 20:00:00 27,7 13,2 29,0 23,2 18,3 8 4 15 8 NNE 1015,8 20 53 0,0
14.07.2018 19:00:00 27,9 13,8 28,4 23,1 18,3 7 4 14 8 NNW 1015,9 19 39 0,0
14.07.2018 18:00:00 27,7 13,2 28,9 22,9 18,2 6 3 18 10 NNW 1016,3 20 17 0,0
14.07.2018 17:00:00 28,1 13,6 33,5 22,6 18,2 4 2 17 9 WNW 1016,6 20 50 0,0
14.07.2018 16:00:00 27,4 13,7 28,6 22,3 18,3 8 5 15 8 NE 1017,2 20 26 0,0
14.07.2018 15:00:00 27,3 14,3 30,3 21,9 18,3 5 3 23 12 NE 1017,7 20 27 0,0
14.07.2018 14:00:00 27,2 14,6 32,7 21,5 18,2 5 3 24 13 NE 1018,1 20 60 0,0
14.07.2018 13:00:00 26,0 14,1 31,8 21,2 18,2 13 7 22 12 ENE 1018,5 20 60 0,0
14.07.2018 12:00:00 25,2 13,7 30,1 20,9 18,2 10 5 19 10 NNE 1019,0 20 60 0,0

tt = Température de l'air
td = dewpoint
tt 5cm = Température de l'air 5cm
tt -20cm = Température de l'air -20cm
tt -100cm = Température de l'air -100cm
ff = Vitesse du vent
fx = gusts
dd = Direction du vent
ppp = reduced air pressure
vv = visibility
sd = Ensoleillement
rr = Quantités de précipitations

stations d'obs. à proximité